Lid_Strength_Index
1 2 2 2 3 3 3 2 2 3 3 3 2 2 1 1 1 2 5 4 4 2 2 3 2 4 4 6 5 5 11 13 11 10 9 9 10 8 7 8 8 7 7 5 3
1 1 1 1 1 2 2 2 2 2 3 2 2 2 2 2 3 5 3 2 1 2 5 5 6 5 7 7 7 9 12 11 9 8 9 8 9 9 9 9 8 8 6 4 3
2 1 1 1 0 1 2 2 2 2 2 2 2 2 2 3 6 7 3 2 1 1 5 5 5 7 8 7 8 9 12 9 9 8 8 9 9 9 9 10 8 8 7 5 4
2 2 1 1 1 0 1 1 1 1 1 2 2 2 2 3 12 6 2 2 1 2 7 8 7 9 10 10 8 11 9 9 8 8 9 10 9 9 9 8 8 7 6 5 5
2 2 1 1 1 1 0 1 1 1 1 1 1 2 4 6 6 4 2 2 4 5 8 9 10 9 11 10 9 10 9 8 8 8 9 9 10 10 10 8 8 7 6 6 5
2 2 2 1 1 1 1 0 1 1 1 2 2 1 6 10 2 1 3 4 5 6 8 9 9 9 10 10 11 10 9 9 8 8 9 10 10 10 10 8 8 8 8 6 6
1 2 2 2 2 2 2 1 1 1 1 1 2 3 6 8 2 1 2 3 3 6 8 8 8 9 9 11 9 10 12 11 10 9 10 9 11 11 9 8 8 8 8 7 6
1 1 2 2 2 2 2 2 1 1 1 1 2 4 9 3 3 3 1 2 2 2 5 5 6 8 9 9 10 12 13 15 12 10 10 10 15 10 8 9 9 8 9 8 7
1 1 2 2 2 2 2 2 1 1 1 1 4 6 10 3 5 3 3 3 3 3 3 4 6 9 10 13 15 14 18 16 14 11 11 12 15 10 8 9 9 8 8 8 8
1 1 1 1 2 2 2 2 2 1 1 2 4 8 7 8 5 4 3 3 4 4 5 6 7 12 13 15 20 18 17 15 15 12 12 13 13 11 9 9 9 9 8 8 7
1 1 1 1 1 1 2 3 6 8 5 8 8 8 6 5 3 5 3 5 5 7 10 7 11 14 14 13 13 14 15 16 13 11 13 13 13 12 10 10 10 10 9 9 7
1 1 1 1 1 1 1 6 6 5 9 6 6 6 5 5 8 6 3 7 8 11 9 10 13 10 9 10 13 14 15 16 13 12 13 15 15 12 11 11 10 10 9 9 8
0 0 0 0 -0 1 3 4 1 2 8 8 6 7 6 5 8 8 5 6 9 10 10 12 11 8 9 10 12 14 15 15 14 12 12 14 16 14 11 10 10 9 9 8 8
-1 -1 -1 -1 2 2 4 1 0 0 12 11 9 7 6 5 9 5 5 6 8 11 10 10 9 10 10 11 10 14 12 12 13 13 18 14 20 15 13 12 11 10 10 9 9
-1 -1 -1 -1 2 4 2 -0 -0 3 20 10 9 4 6 8 7 8 4 6 10 10 9 12 11 11 11 11 9 12 9 11 12 14 14 15 18 18 13 14 12 11 10 10 9
-1 -1 -1 0 1 1 -0 -0 2 13 19 11 8 9 9 8 8 6 7 5 5 9 9 10 8 9 10 8 8 8 10 10 12 13 17 18 17 18 16 14 13 12 11 10 9
-1 -1 -0 0 4 -0 -0 4 14 17 10 12 11 9 9 10 9 8 9 10 12 15 15 11 10 8 7 10 8 9 12 18 19 19 22 16 16 18 14 13 12 12 12 11 11
-1 -1 -0 1 0 -0 2 10 17 13 12 8 9 9 11 9 10 9 10 12 9 10 13 15 16 11 8 10 11 11 12 18 22 21 21 15 19 17 13 11 11 12 12 11 11
-1 1 2 1 -0 1 7 15 15 12 9 10 9 12 13 10 10 10 11 12 10 9 14 14 14 8 8 8 9 12 15 10 14 17 17 15 16 13 12 13 13 12 12 12 11
2 3 3 0 -0 3 10 13 12 8 8 8 12 11 15 13 12 12 12 9 10 8 8 11 15 9 8 8 8 10 9 16 14 21 21 17 18 17 14 13 12 12 12 11 11
3 8 3 -0 1 7 13 12 10 7 7 9 11 12 11 12 12 12 12 10 8 9 8 9 12 13 10 12 13 12 13 12 12 14 18 18 18 13 13 12 11 11 11 11 11
8 10 2 1 9 9 12 10 7 8 7 8 8 9 11 10 12 12 13 10 7 7 11 9 12 16 14 9 9 10 11 12 16 17 15 15 16 10 11 11 10 11 10 10 10
7 7 2 3 12 12 10 10 9 9 9 9 10 8 8 10 13 11 10 7 7 8 10 9 14 18 16 12 11 13 12 10 11 12 15 17 15 9 11 11 11 11 11 10 10
7 11 7 6 7 9 11 11 11 7 8 8 9 8 10 11 10 13 12 9 8 8 7 8 13 15 17 14 13 15 13 12 12 16 15 14 13 11 11 10 10 10 9 9 10
7 9 8 11 10 9 9 10 11 12 8 8 10 10 11 13 12 13 11 10 9 8 8 10 15 14 12 12 12 13 12 13 14 13 15 13 12 11 10 9 9 9 8 8 9
9 9 9 9 8 9 9 11 11 10 10 11 11 10 10 12 11 13 10 10 11 9 10 9 17 15 18 12 13 14 13 11 13 13 12 12 12 8 8 9 9 8 8 8 9
5 4 6 8 9 10 11 10 10 9 8 7 9 10 11 10 8 8 7 8 9 11 12 13 16 19 20 14 14 17 13 12 12 11 12 15 10 8 8 9 8 9 8 8 9